Satellite-Ground Cal/Val Region Overpasses Predictions

Prediction of Satellite NPP Overpassing Cal/Val Region: PacNW

Region Location: (Latitude: 10.00, Longitude: 139.50) to (Latitude: 22.70, Longitude: 165.60).

Table of predicted overpasses for the next 14.0 days since TLE Epoch: 7/20/2013
Interval Starting Time Starting Location Ending Time Ending Location
1 07/20/2013 15:36:09 ( 22.66, 150.83) 07/20/2013 15:39:44 ( 10.04, 147.83)
2 07/21/2013 02:45:15 ( 10.05, 158.34) 07/21/2013 02:48:50 ( 22.67, 155.33)
3 07/21/2013 15:17:09 ( 22.67, 155.59) 07/21/2013 15:20:44 ( 10.05, 152.58)
4 07/22/2013 02:26:15 ( 10.04, 163.10) 07/22/2013 02:29:50 ( 22.66, 160.09)
5 07/22/2013 14:58:08 ( 22.68, 160.35) 07/22/2013 15:01:43 ( 10.06, 157.34)
6 07/23/2013 02:09:57 ( 19.61, 165.60) 07/23/2013 02:10:49 ( 22.66, 164.84)
7 07/23/2013 03:48:44 ( 10.03, 142.48) 07/23/2013 03:52:16 ( 22.48, 139.51)
8 07/23/2013 14:39:08 ( 22.68, 165.10) 07/23/2013 14:42:44 ( 10.00, 162.08)
9 07/23/2013 16:20:38 ( 22.68, 139.73) 07/23/2013 16:20:53 ( 21.80, 139.51)
10 07/24/2013 03:29:44 ( 10.03, 147.23) 07/24/2013 03:33:19 ( 22.65, 144.22)
11 07/24/2013 16:01:37 ( 22.69, 144.48) 07/24/2013 16:05:13 ( 10.01, 141.46)
12 07/25/2013 03:10:43 ( 10.02, 151.99) 07/25/2013 03:14:18 ( 22.64, 148.98)
13 07/25/2013 15:42:37 ( 22.70, 149.24) 07/25/2013 15:46:13 ( 10.02, 146.22)
14 07/26/2013 02:51:43 ( 10.01, 156.74) 07/26/2013 02:55:19 ( 22.69, 153.72)
15 07/26/2013 15:23:37 ( 22.64, 153.98) 07/26/2013 15:27:12 ( 10.03, 150.97)
16 07/27/2013 02:32:42 ( 10.01, 161.50) 07/27/2013 02:36:18 ( 22.69, 158.48)
17 07/27/2013 15:04:37 ( 22.65, 158.73) 07/27/2013 15:08:12 ( 10.03, 155.73)
18 07/28/2013 02:14:31 ( 12.88, 165.59) 07/28/2013 02:17:18 ( 22.68, 163.23)
19 07/28/2013 03:55:12 ( 10.00, 140.88) 07/28/2013 03:56:52 ( 15.88, 139.51)
20 07/28/2013 14:45:37 ( 22.66, 163.49) 07/28/2013 14:49:12 ( 10.04, 160.48)
21 07/29/2013 03:36:12 ( 10.06, 145.62) 07/29/2013 03:39:47 ( 22.68, 142.61)
22 07/29/2013 14:29:45 ( 11.57, 165.59) 07/29/2013 14:30:11 ( 10.04, 165.24)
23 07/29/2013 16:08:06 ( 22.66, 142.87) 07/29/2013 16:11:41 ( 10.04, 139.86)
24 07/30/2013 03:17:12 ( 10.05, 150.38) 07/30/2013 03:20:47 ( 22.67, 147.37)
25 07/30/2013 15:49:06 ( 22.67, 147.63) 07/30/2013 15:52:41 ( 10.05, 144.62)
26 07/31/2013 02:58:11 ( 10.05, 155.13) 07/31/2013 03:01:46 ( 22.67, 152.12)
27 07/31/2013 15:30:05 ( 22.67, 152.38) 07/31/2013 15:33:40 ( 10.06, 149.37)
28 08/01/2013 02:39:11 ( 10.04, 159.89) 08/01/2013 02:42:46 ( 22.66, 156.88)
29 08/01/2013 15:11:05 ( 22.68, 157.14) 08/01/2013 15:14:41 ( 10.00, 154.11)
30 08/02/2013 02:20:10 ( 10.04, 164.64) 08/02/2013 02:23:45 ( 22.66, 161.63)


NCC Satellite Cal/Val Overpasses Prediction Service
